Weather History for KERI - September, 2013

Change the Weather History Date:

Wednesday, September 4, 2013

  Actual Average Record
Temperature  
Mean Temperature 67 °F 68 °F  
Max Temperature 75 °F 76 °F 97 °F (1953)
Min Temperature 59 °F 60 °F 46 °F (1951)
Degree Days  
Heating Degree Days 0 1  
Month to date heating degree days 1 4  
Since 1 July heating degree days 13 22  
Cooling Degree Days 2 4  
Month to date cooling degree days 18 16  
Year to date cooling degree days 639 574  
Growing Degree Days 17 (Base 50)    
Moisture  
Dew Point 56 °F    
Average Humidity 69    
Maximum Humidity 84    
Minimum Humidity 53    
Precipitation  
Precipitation 0.00 in 0.13 in 2.69 in (1944)
Month to date precipitation 0.84 0.52  
Year to date precipitation 34.71 26.35  
Snow  
Snow 0.00 in 0.00 in - ()
Month to date snowfall 0.0 0.0  
Since 1 July snowfall 0.0 0.0  
Since 1 September snowfall 0.0 0.0  
Snow Depth 0.00 in    
Sea Level Pressure  
Sea Level Pressure 30.04 in    
Wind  
Wind Speed 10 mph (SW)    
Max Wind Speed 20 mph    
Max Gust Speed 28 mph    
Visibility 10 miles    
Events      
T = Trace of Precipitation, MM = Missing Value Source: NWS Daily Summary

Daily Weather History Graph

Daily Weather History Graph

Search for Another Location

Airport or City:

Trip Planner

Search our weather history database for the weather conditions in past years. The results will help you decide how hot, cold, wet, or windy it might be!

Date:

Astronomy

Sep. 04, 2013 Rise Set
Actual Time 6:49 AM EDT 7:48 PM EDT
Civil Twilight 6:21 AM EDT 8:17 PM EDT
Nautical Twilight 5:46 AM EDT 8:51 PM EDT
Astronomical Twilight 5:11 AM EDT 9:26 PM EDT
Moon 6:00 AM EDT (9/4) 7:07 PM EDT (9/4)
Length of Visible Light 13h 56m
Length of Day
12h 59m
Waning Crescent, 1% of the Moon is Illuminated
Sep 4
Waning Crescent
Sep 5
New
Sep 12
First Quarter
Sep 19
Full
Sep 26
Last Quarter

Hourly Weather History & Observations

Time (EDT) Temp. Dew Point Humidity Pressure Visibility Wind Dir Wind Speed Gust Speed Precip Events Conditions
12:51 AM 61.0 °F 55.0 °F 81% 30.02 in 10.0 mi SSW 8.1 mph - N/A   Clear
1:51 AM 60.1 °F 55.0 °F 83% 30.02 in 10.0 mi SSW 8.1 mph - N/A   Clear
2:51 AM 60.1 °F 55.0 °F 83% 30.01 in 10.0 mi SSW 6.9 mph - N/A   Clear
3:51 AM 60.1 °F 54.0 °F 80% 30.02 in 10.0 mi SSW 8.1 mph - N/A   Clear
4:51 AM 59.0 °F 53.1 °F 81% 30.02 in 10.0 mi SSW 8.1 mph - N/A   Clear
5:51 AM 60.1 °F 54.0 °F 80% 30.04 in 10.0 mi SSW 9.2 mph - N/A   Clear
6:51 AM 60.1 °F 54.0 °F 80% 30.05 in 10.0 mi SSW 9.2 mph - N/A   Partly Cloudy
7:51 AM 61.0 °F 55.9 °F 83% 30.06 in 10.0 mi SW 9.2 mph - N/A   Clear
8:51 AM 64.9 °F 57.9 °F 78% 30.06 in 10.0 mi SW 9.2 mph - N/A   Scattered Clouds
9:51 AM 68.0 °F 59.0 °F 73% 30.07 in 10.0 mi SW 11.5 mph 19.6 mph N/A   Partly Cloudy
10:51 AM 70.0 °F 60.1 °F 71% 30.06 in 10.0 mi West 11.5 mph 23.0 mph N/A   Partly Cloudy
11:51 AM 72.0 °F 59.0 °F 64% 30.06 in 10.0 mi West 12.7 mph 21.9 mph N/A   Partly Cloudy
12:51 PM 73.9 °F 59.0 °F 59% 30.06 in 10.0 mi West 16.1 mph 23.0 mph N/A   Scattered Clouds
1:51 PM 73.0 °F 55.9 °F 55% 30.06 in 10.0 mi West 15.0 mph 27.6 mph 0.00 in   Clear
2:51 PM 73.0 °F 55.9 °F 55% 30.05 in 10.0 mi WSW 16.1 mph 23.0 mph N/A   Clear
3:51 PM 73.0 °F 57.9 °F 59% 30.04 in 10.0 mi WSW 16.1 mph 25.3 mph 0.00 in   Clear
4:51 PM 73.9 °F 57.9 °F 57% 30.02 in 10.0 mi West 12.7 mph 17.3 mph N/A   Clear
5:51 PM 73.0 °F 57.0 °F 57% 30.03 in 10.0 mi West 12.7 mph 23.0 mph N/A   Clear
6:51 PM 72.0 °F 55.9 °F 57% 30.03 in 10.0 mi WSW 10.4 mph 19.6 mph N/A   Clear
7:51 PM 69.1 °F 57.0 °F 65% 30.03 in 10.0 mi SSW 5.8 mph - N/A   Clear
8:51 PM 68.0 °F 55.0 °F 63% 30.03 in 10.0 mi SSW 6.9 mph - N/A   Partly Cloudy
9:51 PM 68.0 °F 55.0 °F 63% 30.02 in 10.0 mi SSW 8.1 mph - N/A   Partly Cloudy
10:51 PM 69.1 °F 55.0 °F 61% 30.02 in 10.0 mi SW 8.1 mph - N/A   Overcast
11:51 PM 69.1 °F 55.9 °F 63% 30.01 in 10.0 mi SW 8.1 mph - N/A   Mostly Cloudy